Location: Bussy-Saint-Georges
(48.8410°N, 2.7017°E)
Time: 04:02:01
(UTC+00:00)

CSL-04 Debris - Pass Details

Date: 18 October 2021
Orbit: 827 x 847 km, 98.9° (Epoch: 30 November)

Event Time Altitude Azimuth Distance (km) Brightness Sun altitude
Exits shadow 18:37:08 16° 143° (SE) 2,015 5.8 -17.8°
Maximum altitude 18:41:18 58° 69° (ENE) 968 4.2 -18.4°
Drops below altitude 10° 18:46:37 10° 352° (N) 2,452 6.8 -19.3°
Sets 18:49:01 0° 348° (NNW) 3,393 7.6 -19.7°
